Waukesha, WI

9:30 PM CST on February 19, 2017 (GMT -0600)
Waukesha County

Weather History for KUES - September, 2014

Change the Weather History Date:

Thursday, September 25, 2014

  Actual Average Record
Temperature  
Mean Temperature 62 °F -  
Max Temperature 73 °F 65 °F 80 °F (1956)
Min Temperature 50 °F 47 °F 34 °F (1987)
Degree Days  
Heating Degree Days 4    
Growing Degree Days 12 (Base 50)    
Moisture  
Dew Point 51 °F    
Average Humidity 84    
Maximum Humidity 94    
Minimum Humidity 41    
Precipitation  
Precipitation 0.00 in - - ()
Sea Level Pressure  
Sea Level Pressure 30.28 in    
Wind  
Wind Speed 1 mph (East)    
Max Wind Speed 9 mph    
Max Gust Speed -    
Visibility 9 miles    
Events      
Averages and records for this station are not official NWS values.
T = Trace of Precipitation, MM = Missing Value Source: NWS Daily Summary

Daily Weather History Graph

Daily Weather History Graph

Search for Another Location

Airport or City:

Trip Planner

Search our weather history database for the weather conditions in past years. The results will help you decide how hot, cold, wet, or windy it might be!

Date:

Astronomy

Sep. 25, 2014 Rise Set
Actual Time 6:43 AM CDT 6:44 PM CDT
Civil Twilight 6:15 AM CDT 7:13 PM CDT
Nautical Twilight 5:42 AM CDT 7:46 PM CDT
Astronomical Twilight 5:08 AM CDT 8:19 PM CDT
Moon 8:03 AM CDT (9/25) 7:25 PM CDT (9/25)
Length of Visible Light 12h 57m
Length of Day
12h 01m
New Moon, 2% of the Moon is Illuminated
Sep 25
New Moon
Oct 1
First Quarter
Oct 8
Full
Oct 15
Last Quarter
Oct 23
New

Hourly Weather History & Observations

Time (CDT) Temp. Dew Point Humidity Pressure Visibility Wind Dir Wind Speed Gust Speed Precip Events Conditions
12:15 AM 53.6 °F 50.0 °F 88% 30.29 in 10.0 mi Calm Calm - N/A   Clear
12:35 AM 51.8 °F 50.0 °F 94% 30.29 in 10.0 mi Calm Calm - N/A   Clear
12:55 AM 53.6 °F 50.0 °F 88% 30.29 in 10.0 mi Calm Calm - N/A   Clear
1:15 AM 51.8 °F 50.0 °F 94% 30.29 in 10.0 mi Calm Calm - N/A   Clear
1:35 AM 51.8 °F 48.2 °F 88% 30.29 in 10.0 mi Calm Calm - N/A   Clear
1:55 AM 51.8 °F 48.2 °F 88% 30.29 in 10.0 mi Calm Calm - N/A   Clear
2:15 AM 51.8 °F 48.2 °F 88% 30.29 in 10.0 mi Calm Calm - N/A   Clear
2:35 AM 51.8 °F 50.0 °F 94% 30.28 in 10.0 mi Calm Calm - N/A   Clear
2:55 AM 51.8 °F 50.0 °F 94% 30.28 in 10.0 mi Calm Calm - N/A   Clear
3:15 AM 50.0 °F 48.2 °F 94% 30.28 in 10.0 mi Calm Calm - N/A   Clear
3:35 AM 51.8 °F 50.0 °F 94% 30.29 in 10.0 mi Calm Calm - N/A   Clear
3:55 AM 51.8 °F 50.0 °F 94% 30.29 in 10.0 mi Calm Calm - N/A   Clear
4:15 AM 51.8 °F 50.0 °F 94% 30.29 in 10.0 mi Calm Calm - N/A   Clear
4:35 AM 51.8 °F 50.0 °F 94% 30.29 in 10.0 mi Calm Calm - N/A   Clear
4:55 AM 50.0 °F 48.2 °F 94% 30.29 in 10.0 mi Calm Calm - N/A   Clear
5:15 AM 51.8 °F 50.0 °F 94% 30.29 in 10.0 mi East 3.5 mph - N/A   Clear
5:35 AM 51.8 °F 50.0 °F 94% 30.29 in 7.0 mi Calm Calm - N/A   Clear
5:45 AM 51.8 °F 50.0 °F 94% 30.29 in 10.0 mi NNE 2.3 mph - N/A   Clear
6:45 AM 51.8 °F 50.0 °F 94% 30.30 in 10.0 mi East 4.6 mph - N/A   Scattered Clouds
7:45 AM 53.6 °F 51.8 °F 94% 30.30 in 7.0 mi ENE 3.5 mph - N/A   Scattered Clouds
8:45 AM 57.2 °F 53.6 °F 88% 30.31 in 7.0 mi Calm Calm - N/A   Scattered Clouds
11:45 AM 71.6 °F 48.2 °F 43% 30.30 in 10.0 mi Calm Calm - N/A   Clear
1:45 PM 73.4 °F 48.2 °F 41% 30.27 in 10.0 mi East 9.2 mph - N/A   Clear
2:45 PM 73.4 °F 48.2 °F 41% 30.25 in 10.0 mi East 9.2 mph - N/A   Clear
3:45 PM 71.6 °F 48.2 °F 43% 30.24 in 10.0 mi East 9.2 mph - N/A   Clear
4:45 PM 69.8 °F 48.2 °F 46% 30.24 in 10.0 mi ESE 9.2 mph - N/A   Scattered Clouds
5:45 PM 66.2 °F 51.8 °F 60% 30.24 in 10.0 mi ESE 9.2 mph - N/A   Scattered Clouds
6:45 PM 64.4 °F 51.8 °F 64% 30.24 in 10.0 mi ESE 3.5 mph - N/A   Scattered Clouds
7:45 PM 60.8 °F 55.4 °F 82% 30.24 in 10.0 mi East 3.5 mph - N/A   Scattered Clouds
8:45 PM 60.8 °F 55.4 °F 82% 30.26 in 10.0 mi East 3.5 mph - N/A   Scattered Clouds
9:15 PM 59.0 °F 55.4 °F 88% 30.26 in 7.0 mi Calm Calm - N/A   Scattered Clouds
9:35 PM 59.0 °F 55.4 °F 88% 30.26 in 7.0 mi Calm Calm - N/A   Clear
9:55 PM 59.0 °F 55.4 °F 88% 30.26 in 7.0 mi Calm Calm - N/A   Clear
10:15 PM 55.4 °F 53.6 °F 94% 30.26 in 5.0 mi Calm Calm - N/A   Scattered Clouds
10:35 PM 55.4 °F 53.6 °F 94% 30.27 in 5.0 mi Calm Calm - N/A   Mostly Cloudy
10:55 PM 55.4 °F 53.6 °F 94% 30.27 in 4.0 mi Calm Calm - N/A   Overcast
11:35 PM 55.4 °F 53.6 °F 94% 30.26 in 4.0 mi Calm Calm - N/A   Clear
11:55 PM 55.4 °F 53.6 °F 94% 30.26 in 3.0 mi Calm Calm - N/A   Clear